Flag for Belarus Weather past 2 weeks in Barysaw, Belarus

Now
45 °F

Clear.


Feels Like: 45 °F
Forecast: 48 / 68 °F
Wind: No wind

Location: Minsk

Current Time: Aug 23, 2014 at 2:44:43 AM

Latest Report: Aug 23, 2014 at 2:00 AM


Visibility: 10 mi

Pressure: 30.07 "Hg

Humidity: 100%

Dew point: 45 °F

Location of BarysawLocation

Historic Weather in Barysaw — Graph

°F

Barysaw temperature yesterday

Maximum temperature yesterday: 66 °F (at 3:30 PM)
Minimum temperature yesterday: 46 °F (at 5:00 AM)
Average temperature yesterday: 55 °F

Past Weeks' High & Low Weather Summary

 TemperatureHumidityPressure
High88 °F (Aug 11, 3:30 PM)100% (Aug 10, 3:00 AM)30.07 "Hg (Aug 10, 3:00 AM)
Low45 °F (Aug 23, 1:30 AM)29% (Aug 8, 4:30 PM)29.65 "Hg (Aug 14, 8:00 AM)
Average65 °F73%29.88 "Hg
* Reported Aug 8 1:00 AM — Aug 23 1:30 AM, Barysaw, Weather by CustomWeather, © 2014

Note: Actual official high and low records may vary slightly from our data, if they occured in-between our weather recording intervals... More about our weather records

Advertising

Barysaw weather history for previous 24 hours

 ConditionsComfort  
Time TempWeatherWind HumidityBarometerVisibility
1:30 AM
Aug 23
45 °FClear.No wind100%30.07 "Hg10 mi
1:00 AM46 °FClear.1 mph93%30.07 "Hg10 mi
12:30 AM46 °FClear.No wind93%30.07 "Hg10 mi
12:00 AM46 °FClear.No wind100%30.07 "Hg10 mi
11:30 PM
Aug 22
46 °FClear.No wind93%30.07 "Hg10 mi
11:00 PM46 °FClear.No wind93%30.04 "Hg10 mi
10:30 PM48 °FClear.No wind94%30.04 "Hg10 mi
10:00 PM48 °FClear.No wind94%30.04 "Hg10 mi
9:30 PM50 °FClear.No wind88%30.04 "Hg10 mi
9:00 PM52 °FSunny.No wind88%30.04 "Hg10 mi
8:30 PM55 °FSunny.1 mph77%30.04 "Hg10 mi
8:00 PM57 °FSunny.1 mph77%30.04 "Hg10 mi
7:30 PM59 °FSunny.1 mph68%30.04 "Hg10 mi
7:00 PM61 °FPassing clouds.3 mph68%30.04 "HgN/A
6:30 PM64 °FSunny.6 mph46%30.04 "Hg10 mi
6:00 PM64 °FPassing clouds.3 mph49%30.04 "HgN/A
5:30 PM66 °FSunny.8 mph46%30.04 "Hg10 mi
5:00 PM66 °FPassing clouds.6 mph46%30.04 "HgN/A
4:30 PM66 °FPassing clouds.6 mph46%30.04 "HgN/A
4:00 PM64 °FPassing clouds.6 mph46%30.04 "HgN/A
3:30 PM66 °FPassing clouds.8 mph46%30.04 "HgN/A
3:00 PM64 °FScattered clouds.8 mph49%30.04 "HgN/A
2:30 PM63 °FScattered clouds.6 mph56%30.04 "HgN/A
2:00 PM63 °FScattered clouds.6 mph56%30.04 "HgN/A
1:30 PM64 °FScattered clouds.10 mph49%30.04 "HgN/A
1:00 PM64 °FScattered clouds.10 mph49%30.04 "HgN/A
12:30 PM63 °FScattered clouds.8 mph52%30.04 "HgN/A
12:00 PM61 °FScattered clouds.8 mph59%30.04 "HgN/A
11:30 AM61 °FScattered clouds.8 mph63%30.04 "HgN/A
11:00 AM59 °FScattered clouds.8 mph68%30.04 "HgN/A
10:30 AM57 °FScattered clouds.8 mph77%30.01 "HgN/A
10:00 AM57 °FScattered clouds.8 mph77%30.01 "HgN/A
9:30 AM55 °FScattered clouds.8 mph82%30.01 "HgN/A
9:00 AM52 °FScattered clouds.6 mph94%30.01 "HgN/A
8:30 AM52 °FScattered clouds.3 mph94%29.98 "HgN/A
8:00 AM50 °FScattered clouds.6 mph94%29.98 "HgN/A
7:30 AM48 °FPassing clouds.6 mph100%29.98 "HgN/A
7:00 AM48 °FScattered clouds.6 mph94%29.98 "HgN/A
6:30 AM46 °FPassing clouds.3 mph100%29.95 "HgN/A
6:00 AM46 °FClear.No wind100%29.95 "Hg10 mi
5:30 AM46 °FClear.No wind100%29.95 "Hg10 mi
5:00 AM46 °FPassing clouds.3 mph100%29.95 "HgN/A
4:30 AM48 °FPassing clouds.3 mph94%29.95 "HgN/A
4:00 AM48 °FClear.6 mph100%29.95 "Hg10 mi
3:30 AM50 °FPartly cloudy.8 mph94%29.95 "HgN/A
3:00 AM50 °FPartly cloudy.8 mph100%29.92 "HgN/A
2:30 AM50 °FClear.6 mph100%29.92 "Hg10 mi
2:00 AM50 °FMostly cloudy.6 mph100%29.92 "HgN/A
Weather by CustomWeather, © 2014

See weather overviewHow to use our weather pages